sat.trackr.live / text

‹ back to catalog

QIANFAN-170

NORAD 69387 · 2026-124F

PAYLOAD ACTIVE UNKNOWN

§ Identity

Operator
Country
PRC
Launch date
2026-06-04
Launch site
TAISC
Launch vehicle
Mass (kg)
RCS (m²)

External: N2YO · Heavens-Above · Gunter

§ Orbital elements

Epoch: 2026-09-20T04:15:37.694304Z

Period
106.59 min
Inclination
89.0075°
Eccentricity
0.0001785
Mean motion
13.51026144 rev/d
Perigee alt
1,067.2 km
Apogee alt
1,069.8 km
Semi-major
7,446.6 km
B*
1.4036e-4
RAAN
352.0239°
Arg perigee
98.8350°
Mean anomaly
261.3003°
Rev number
1,488

§ Raw data

QIANFAN-1701 69387U 26124F   26263.17751961  .00000103  00000+0  14036-3 0  99942 69387  89.0075 352.0239 0001785  98.8350 261.3003 13.51026144 14885

JSON: /api/v1/satellites/69387 · /tle

For live sub-satellite position, see the globe view (requires WebGL).

§ Visibility from observer

Set your observer location to see the next 7 days of passes ≥ 10°. The values pass through the URL so the page stays shareable.

No JS? Fill the form by hand. The geolocation button needs JavaScript.